[[{"header":{"parameterUnit":"m.s-1","parameterCategory":2,"la1":30.2991,"la2":30.254,"lo1":-89.0895,"lo2":-89.0444,"dy":0.0017,"dx":0.0017,"nx":28,"ny":28,"refTime":"2024-07-10T21:00:00:Z","depth":"0","parameterNumber":2,"parameterNumberName":"U-component_of_CURRENTS"},"data":[0,0,0,0,0,0,0,0,0,0,0,0,0,0,0,0,0,0,0,0,0,0,0,0,0,0,0,0,0,0,0,0,0,0,0,0,0,0,0,0,0,0,0,0,0,0,0,0,0,0,0,0,0,0,0,0,0,0,0.2618,0.262,0,0.2751,0.2753,0.2754,0.2838,0.2839,0.284,0.284,0.2938,0.294,0.2942,0,0,0,0,0,0,0,0,0,0,0,0,0,0.2449,0.2452,0.2618,0.262,0.2622,0.2751,0.2753,0.2755,0.2838,0.2839,0.284,0.2841,0.2937,0.294,0.2942,0,0,0,0,0,0,0,0,0,0,0,0,0,0.2545,0.2452,0.2618,0.268,0.2687,0.2751,0.2753,0.2755,0.2838,0.2839,0.284,0.2841,0.2937,0.294,0.2943,0.2942,0,0,0.2952,0.2953,0,0,0,0,0,0,0,0,0.2539,0.2551,0.2669,0.2676,0.2684,0.2781,0.273,0.2816,0.2838,0.2779,0.284,0.2841,0.2883,0.289,0.2911,0.2947,0.2951,0.2952,0.2954,0.2955,0.2956,0,0,0,0,0,0,0,0.2532,0.2546,0.2669,0.2671,0.268,0.2706,0.2721,0.2746,0.2822,0.2784,0.2791,0.2808,0.2886,0.2908,0.2914,0.2952,0.2952,0.2955,0.2956,0.2958,0.3009,0.3008,0,0,0,0,0,0,0.2518,0.2539,0.2665,0.2673,0.2615,0.2709,0.2725,0.2747,0.2823,0.2836,0.2807,0.2812,0.2902,0.291,0.2918,0.296,0.2955,0.2958,0.296,0.3009,0.3009,0.3008,0,0,0,0,0,0,0.2514,0.2528,0.266,0.261,0.2629,0.2711,0.2736,0.275,0.2774,0.2841,0.2853,0.2817,0.2904,0.2913,0.2948,0.2963,0.2959,0.2962,0.301,0.3009,0.3008,0.3019,0,0,0,0,0,0,0.2509,0.2526,0.2532,0.2609,0.2631,0.2699,0.2735,0.2752,0.2784,0.2791,0.2853,0.2864,0.2905,0.2944,0.2951,0.2967,0.2964,0.301,0.3009,0.3009,0.302,0.3019,0.3019,0,0,0,0,0,0.2502,0.2513,0.2532,0.2547,0.2639,0.2699,0.2712,0.2772,0.2783,0.2795,0.2838,0.2862,0.2943,0.2946,0.2955,0.2972,0.3011,0.301,0.3009,0.302,0.3019,0.3019,0,0,0,0,0,0,0.2418,0.2525,0.2547,0.2582,0.2634,0.2714,0.2728,0.2762,0.2806,0.281,0.2862,0.2876,0.2912,0.2927,0.2929,0.2979,0.2978,0.2978,0.2983,0.2983,0.2982,0.297,0.2967,0,0,0,0,0,0.2406,0.2454,0.2537,0.2556,0.2582,0.2647,0.2675,0.2719,0.2771,0.2791,0.2833,0.2871,0.2913,0.2936,0.2969,0.2995,0.3025,0.3007,0.3006,0.3006,0.2999,0.3068,0.3075,0.3005,0.3005,0.3005,0,0,0.2376,0.2438,0.2462,0.2543,0.2583,0.2624,0.2666,0.2709,0.2741,0.2792,0.283,0.2871,0.2917,0.2959,0.2975,0.2977,0.3039,0.3005,0.3005,0.2998,0.3068,0.3076,0.3082,0.3004,0.3004,0.3004,0,0,0.2347,0.2391,0.2429,0.2475,0.2549,0.2596,0.2603,0.2682,0.2715,0.2757,0.2806,0.285,0.29,0.2952,0.2981,0.2988,0.3033,0.2994,0.2992,0.306,0.3067,0.3074,0.3118,0.3128,0.2997,0.2997,0.2997,0,0.2299,0.2369,0.2439,0.2479,0.2517,0.2578,0.2612,0.265,0.2727,0.276,0.2763,0.2865,0.2898,0.2974,0.2979,0.299,0.303,0.2998,0.3063,0.307,0.3077,0.3121,0.3132,0.2998,0.2998,0.2997,0.2997,0,0.2321,0.2361,0.2376,0.246,0.2499,0.2538,0.2607,0.2642,0.2679,0.273,0.2799,0.2855,0.2923,0.2937,0.2962,0.303,0.3043,0.3057,0.3071,0.3085,0.3129,0.3141,0.2998,0.2998,0.2998,0.2998,0,0,0.2285,0.2376,0.2383,0.2417,0.2502,0.254,0.2581,0.266,0.2699,0.2755,0.2816,0.288,0.292,0.2952,0.2999,0.3047,0.3123,0.3068,0.3072,0.3124,0.3269,0.3151,0.3153,0.3165,0.3167,0.3168,0.3282,0,0.2287,0.2345,0.2398,0.2445,0.2493,0.2552,0.2587,0.2656,0.2715,0.2781,0.2848,0.2913,0.2924,0.2968,0.3021,0.3111,0.3155,0.309,0.3237,0.324,0.3144,0.3162,0.3013,0.309,0.3293,0.3295,0.3297,0,0.2351,0.237,0.2413,0.2475,0.2497,0.252,0.261,0.265,0.2747,0.279,0.287,0.2932,0.3027,0.3018,0.3172,0.3139,0.3193,0.3242,0.3249,0.3139,0.3143,0.3108,0.3104,0.3027,0.3315,0.3314,0.3312,0,0.2383,0.2415,0.2444,0.2465,0.252,0.2542,0.257,0.2659,0.2703,0.2803,0.285,0.2971,0.3034,0.3137,0.3226,0.3223,0.3373,0.3391,0.333,0.3323,0.322,0.3198,0.3163,0.3474,0.3474,0.3473,0.3473,0,0.2452,0.2495,0.2446,0.2475,0.2504,0.2532,0.2585,0.2642,0.2703,0.2765,0.2852,0.2918,0.3066,0.317,0.325,0.3316,0.3401,0.3324,0.3344,0.3214,0.3192,0.3137,0.3098,0.3478,0.3477,0.3476,0.3475,0,0.2592,0.255,0.2591,0.256,0.2547,0.2581,0.2592,0.2629,0.2671,0.2756,0.2788,0.2907,0.3023,0.3145,0.3307,0.3325,0.331,0.3405,0.3221,0.3213,0.3051,0.3018,0.2904,0.2835,0.3372,0.337,0.3368,0,0.2709,0.2716,0.2654,0.2638,0.2635,0.2636,0.2642,0.2643,0.2673,0.2748,0.2795,0.2899,0.2973,0.3129,0.3178,0.3277,0.3217,0.3179,0.3123,0.3005,0.2988,0.2895,0.2841,0.3011,0.3006,0.3002,0.2999,0,0.2889,0.2834,0.2822,0.2776,0.2749,0.2726,0.2715,0.2715,0.2721,0.2756,0.2795,0.2838,0.2917,0.2919,0.2996,0.3048,0.2996,0.3098,0.3049,0.2738,0.2567,0.2522,0.2968,0.2965,0.2968,0.2971,0.2973,0.2974,0.3007,0.3025,0.2945,0.291,0.2866,0.2813,0.2784,0.2749,0.2749,0.2721,0.2764,0.2716,0.2699,0.2763,0.279,0.2702,0.2744,0.2656,0.2644,0.2577,0.2424,0.2758,0.272,0.2722,0.2724,0.2725,0.2726,0,0.3131,0.3101,0.3078,0.2999,0.2945,0.2896,0.2825,0.2749,0.2704,0.2636,0.2601,0.2461,0.242,0.2402,0.2361,0.2288,0.2227,0.2235,0.2103,0.2091,0.2464,0.236,0.2151,0.2151,0.2151,0.2151,0.2151,0.2151,0.3187,0.3177,0.313,0.305,0.299,0.2868,0.28,0.2683,0.2581,0.236,0.2192,0.2113,0.2116,0.2089,0.2002,0.1967,0.1865,0.1735,0.179,0.2078,0.2117,0.2155,0.2049,0.1778,0.1778,0.1341,0.1337,0.1334]},{"header":{"parameterUnit":"m.s-1","parameterCategory":2,"la1":30.2991,"la2":30.254,"lo1":-89.0895,"lo2":-89.0444,"dy":0.0017,"dx":0.0017,"nx":28,"ny":28,"refTime":"2024-07-10T21:00:00:Z","depth":"0","parameterNumber":3,"parameterNumberName":"V-component_of_CURRENTS"},"data":[0,0,0,0,0,0,0,0,0,0,0,0,0,0,0,0,0,0,0,0,0,0,0,0,0,0,0,0,0,0,0,0,0,0,0,0,0,0,0,0,0,0,0,0,0,0,0,0,0,0,0,0,0,0,0,0,0,0,0.0225,0.0224,0,0.0178,0.0177,0.0177,0.0135,0.0135,0.0135,0.0134,0.0048,0.0047,0.0045,0,0,0,0,0,0,0,0,0,0,0,0,0,0.0288,0.0287,0.0225,0.0224,0.0224,0.0178,0.0177,0.0176,0.0135,0.0135,0.0134,0.0134,0.0049,0.0047,0.0045,0,0,0,0,0,0,0,0,0,0,0,0,0,0.0251,0.0286,0.0225,0.0199,0.0196,0.0178,0.0177,0.0176,0.0135,0.0135,0.0134,0.0134,0.005,0.0047,0.0044,0.0037,0,0,0.0035,0.0034,0,0,0,0,0,0,0,0,0.0254,0.0249,0.0203,0.02,0.0197,0.0163,0.0168,0.0128,0.0136,0.0157,0.0134,0.0133,0.0084,0.0079,0.007,0.0033,0.003,0.0035,0.0033,0.0032,0.0031,0,0,0,0,0,0,0,0.0256,0.0251,0.0205,0.0203,0.0199,0.0192,0.0186,0.016,0.0123,0.0155,0.0152,0.0149,0.0082,0.0073,0.0067,0.0029,0.0035,0.0033,0.0031,0.003,-0.0013,-0.0012,0,0,0,0,0,0,0.0264,0.0253,0.0206,0.0204,0.0226,0.0192,0.0185,0.0174,0.0124,0.0116,0.015,0.0147,0.0078,0.0071,0.0064,0.0071,0.0032,0.0029,0.0028,-0.0013,-0.0012,-0.0012,0,0,0,0,0,0,0.0265,0.026,0.0208,0.0229,0.0222,0.0191,0.0179,0.0173,0.0166,0.012,0.0112,0.0149,0.0077,0.0068,0.0046,0.0067,0.0028,0.0025,-0.0014,-0.0013,-0.0012,0.0073,0,0,0,0,0,0,0.0267,0.0261,0.0259,0.0229,0.0221,0.0209,0.0179,0.0172,0.0165,0.0162,0.0117,0.0108,0.0076,0.0051,0.0044,0.0062,0.0023,-0.0015,-0.0014,-0.0012,0.0069,0.0077,0.0083,0,0,0,0,0,0.027,0.0276,0.0259,0.0254,0.0218,0.021,0.0206,0.0181,0.0166,0.0171,0.0137,0.011,0.0053,0.0049,0.004,0.0058,-0.0015,-0.0014,-0.0013,0.0066,0.0075,0.0083,0,0,0,0,0,0,0.0309,0.0272,0.0252,0.0248,0.0233,0.0204,0.0209,0.0189,0.0166,0.0161,0.0115,0.0104,0.0091,0.0063,0.006,0.0049,0.0016,0.0015,0.0079,0.0086,0.0093,0.0118,0.0021,0,0,0,0,0,0.0316,0.0307,0.0274,0.0275,0.0269,0.0239,0.0233,0.0215,0.019,0.018,0.0148,0.0115,0.009,0.0079,0.0049,0.0046,0.0025,0.0051,0.0058,0.0064,0.0078,0.0066,0.0074,-0.0007,-0.0007,-0.0007,0,0,0.0333,0.0312,0.0307,0.0283,0.0269,0.0269,0.0234,0.0231,0.0234,0.0174,0.017,0.0134,0.0092,0.0086,0.0079,0.0066,0.0075,0.0066,0.0072,0.0082,0.0069,0.0077,0.0084,-0.0006,-0.0006,-0.0007,0,0,0.037,0.0344,0.035,0.0339,0.032,0.0301,0.0303,0.0274,0.0265,0.0255,0.0212,0.0193,0.0155,0.0134,0.0117,0.0144,0.0108,0.0133,0.0193,0.0182,0.0189,0.0195,0.0178,0.0182,0.0142,0.0142,0.0142,0,0.0392,0.0388,0.0356,0.0362,0.0359,0.0319,0.0331,0.0319,0.0288,0.0289,0.0265,0.0221,0.0181,0.018,0.0188,0.0161,0.0147,0.0168,0.0193,0.0198,0.0202,0.0184,0.0187,0.0146,0.0146,0.0145,0.0145,0,0.0433,0.0428,0.0438,0.0424,0.0421,0.0425,0.0401,0.0399,0.0378,0.0364,0.0358,0.0308,0.0283,0.027,0.0236,0.0252,0.0228,0.0199,0.0177,0.0216,0.0194,0.0195,0.0152,0.0151,0.015,0.0149,0,0,0.0474,0.0466,0.0467,0.0469,0.0449,0.0451,0.0463,0.0462,0.0477,0.0449,0.0472,0.0426,0.0398,0.0377,0.0334,0.033,0.0342,0.0288,0.0286,0.0281,0.0318,0.0302,0.0302,0.032,0.0321,0.0322,0.029,0,0.0511,0.0534,0.0521,0.0544,0.0548,0.0524,0.0542,0.0538,0.0529,0.0542,0.0506,0.0504,0.044,0.0433,0.0417,0.0366,0.0351,0.0353,0.0273,0.0271,0.0259,0.0305,0.0305,0.0277,0.0291,0.0291,0.0291,0,0.0546,0.0554,0.0582,0.0592,0.0596,0.061,0.0626,0.0638,0.0646,0.0643,0.0635,0.0604,0.0594,0.0532,0.047,0.0477,0.0403,0.036,0.0357,0.0317,0.0258,0.0239,0.0279,0.0196,0.0293,0.0293,0.0293,0,0.0569,0.0593,0.0616,0.0618,0.0627,0.0647,0.066,0.0671,0.0697,0.0713,0.0742,0.0704,0.0704,0.0622,0.0518,0.0499,0.0452,0.0406,0.0319,0.0316,0.0289,0.0283,0.0249,0.0355,0.0355,0.0355,0.0355,0,0.0591,0.0605,0.0633,0.0637,0.0681,0.0682,0.0731,0.074,0.0778,0.0839,0.0796,0.0835,0.0729,0.0684,0.0566,0.046,0.0479,0.0346,0.0316,0.0317,0.0314,0.0216,0.0164,0.0354,0.0354,0.0355,0.0355,0,0.0581,0.0602,0.0625,0.0662,0.0684,0.071,0.0775,0.0818,0.085,0.0933,0.0951,0.0945,0.09,0.0776,0.0656,0.0534,0.0379,0.0366,0.0375,0.0347,0.0193,0.0146,0.0095,0.0076,0.0282,0.0282,0.0281,0,0.0564,0.0581,0.0639,0.067,0.0685,0.0737,0.0788,0.084,0.0906,0.1007,0.1064,0.1053,0.1058,0.0874,0.0666,0.0471,0.0373,0.0329,0.0288,0.0206,0.0129,0.0111,0.0097,0.0278,0.0278,0.0278,0.0278,0,0.053,0.0561,0.0584,0.0662,0.0722,0.0801,0.089,0.0959,0.1057,0.1153,0.1268,0.1284,0.1116,0.0932,0.0657,0.0512,0.0294,0.0316,0.0231,0.0136,0.0114,0.0074,0.0272,0.0275,0.0275,0.0275,0.0275,0.0276,0.0499,0.052,0.0581,0.0653,0.074,0.0874,0.0962,0.1089,0.1236,0.1414,0.1409,0.1462,0.1168,0.0805,0.0602,0.0254,0.027,0.0143,0.0094,0.0086,0.0067,0.0263,0.0231,0.0231,0.0231,0.0231,0.0231,0,0.0465,0.0516,0.0577,0.0693,0.0812,0.0869,0.1042,0.1159,0.1366,0.1506,0.1613,0.1474,0.1129,0.0771,0.0284,0.0062,0.0007,-0.0046,-0.0076,-0.0078,0.0092,0.0091,0.0028,0.0028,0.0028,0.0028,0.0028,0.0028,0.0452,0.0504,0.0554,0.0738,0.0848,0.1031,0.1147,0.1331,0.1458,0.1632,0.166,0.1635,0.1343,0.0517,-0.0018,-0.0139,-0.0242,-0.0275,-0.0317,-0.0222,-0.0208,-0.0195,-0.0207,-0.0332,-0.0332,-0.0447,-0.0449,-0.045]}],[{"header":{"parameterUnit":"m.s-1","parameterCategory":2,"la1":30.2991,"la2":30.254,"lo1":-89.0895,"lo2":-89.0444,"dy":0.0017,"dx":0.0017,"nx":28,"ny":28,"refTime":"2024-07-10T21:00:00:Z","depth":"2","parameterNumber":2,"parameterNumberName":"U-component_of_CURRENTS"},"data":[0,0,0,0,0,0,0,0,0,0,0,0,0,0,0,0,0,0,0,0,0,0,0,0,0,0,0,0,0,0,0,0,0,0,0,0,0,0,0,0,0,0,0,0,0,0,0,0,0,0,0,0,0,0,0,0,0,0,0.1605,0.1604,0,0.1633,0.1634,0.1635,0.1743,0.1745,0.1746,0.1748,0.1812,0.1813,0.1813,0,0,0,0,0,0,0,0,0,0,0,0,0,0.1564,0.1565,0.1605,0.1604,0.1604,0.1632,0.1634,0.1635,0.1743,0.1745,0.1747,0.1749,0.1812,0.1813,0.1813,0,0,0,0,0,0,0,0,0,0,0,0,0,0.1594,0.1566,0.1605,0.1655,0.1659,0.1632,0.1634,0.1635,0.1742,0.1745,0.1747,0.175,0.1812,0.1813,0.1813,0.1764,0,0,0.1813,0.1814,0,0,0,0,0,0,0,0,0.1593,0.1597,0.1648,0.1651,0.1655,0.1679,0.1642,0.1677,0.1742,0.172,0.1748,0.1751,0.1763,0.1768,0.178,0.1767,0.1769,0.1813,0.1814,0.1814,0.1814,0,0,0,0,0,0,0,0.159,0.1596,0.1625,0.1647,0.1651,0.1647,0.1656,0.165,0.1735,0.1722,0.1728,0.1716,0.1768,0.1779,0.1782,0.177,0.1813,0.1814,0.1814,0.1814,0.1929,0.1932,0,0,0,0,0,0,0.1571,0.1594,0.1624,0.1625,0.162,0.1645,0.1656,0.1676,0.1734,0.1743,0.1714,0.1721,0.1778,0.1782,0.1785,0.1907,0.1814,0.1814,0.1814,0.1926,0.193,0.1933,0,0,0,0,0,0,0.157,0.1574,0.1623,0.1601,0.1606,0.1643,0.1665,0.1675,0.1735,0.1726,0.1738,0.1768,0.178,0.1784,0.1842,0.1904,0.1814,0.1814,0.1923,0.1928,0.1932,0.2038,0,0,0,0,0,0,0.157,0.1575,0.1618,0.1601,0.1606,0.1628,0.1662,0.1674,0.1716,0.1728,0.1774,0.1781,0.1782,0.1842,0.1842,0.1903,0.1814,0.1919,0.1925,0.193,0.2031,0.2046,0.2059,0,0,0,0,0,0.1569,0.1615,0.162,0.1625,0.1653,0.1628,0.1632,0.1671,0.1717,0.1739,0.1797,0.1782,0.1878,0.1844,0.1844,0.1906,0.1917,0.1923,0.193,0.2025,0.2043,0.2058,0,0,0,0,0,0,0.16,0.1628,0.1635,0.1684,0.166,0.1644,0.1676,0.1691,0.1754,0.1794,0.1804,0.1813,0.1897,0.1879,0.1841,0.1959,0.19,0.1907,0.1973,0.1989,0.2003,0.1938,0.1815,0,0,0,0,0,0.1622,0.1668,0.1658,0.1678,0.1691,0.169,0.17,0.1716,0.1742,0.1777,0.1814,0.1864,0.1912,0.1935,0.1966,0.2006,0.1992,0.2052,0.2066,0.2077,0.2027,0.2099,0.2114,0.1955,0.1955,0.1955,0,0,0.1603,0.1643,0.1651,0.1687,0.169,0.1701,0.1708,0.1729,0.1757,0.1768,0.1865,0.1914,0.1937,0.2011,0.2045,0.2008,0.2125,0.2086,0.2095,0.2037,0.2107,0.2122,0.2135,0.1959,0.1959,0.1958,0,0,0.1607,0.166,0.1713,0.1706,0.173,0.1734,0.1748,0.1772,0.1825,0.1873,0.1931,0.2003,0.2054,0.2097,0.2117,0.2211,0.2203,0.2254,0.2258,0.2332,0.2344,0.2355,0.2389,0.2402,0.2252,0.2252,0.2252,0,0.1625,0.1658,0.1705,0.1745,0.1737,0.1756,0.1769,0.1812,0.1854,0.1898,0.1918,0.2055,0.2081,0.2172,0.2215,0.2238,0.227,0.2197,0.2348,0.2358,0.2366,0.2398,0.2411,0.2258,0.2257,0.2256,0.2256,0,0.1636,0.1671,0.169,0.1759,0.1769,0.1765,0.1807,0.1872,0.1933,0.196,0.208,0.2133,0.2206,0.2251,0.2249,0.2354,0.2355,0.2367,0.2299,0.2389,0.2418,0.2429,0.2266,0.2264,0.2262,0.2261,0,0,0.1676,0.1706,0.171,0.1725,0.1771,0.1773,0.1852,0.1908,0.1965,0.2049,0.2125,0.2222,0.2272,0.2296,0.2352,0.2389,0.2497,0.2401,0.2402,0.2419,0.2652,0.2438,0.2429,0.2563,0.2565,0.2566,0.2657,0,0.1681,0.1724,0.1742,0.1752,0.1778,0.181,0.1863,0.1926,0.1995,0.2085,0.2177,0.2268,0.2291,0.2353,0.2408,0.249,0.2527,0.2468,0.257,0.2571,0.2359,0.2434,0.2294,0.2344,0.2668,0.2669,0.2671,0,0.171,0.1736,0.1752,0.1765,0.1781,0.1802,0.1887,0.1936,0.206,0.2112,0.2224,0.23,0.2422,0.241,0.2568,0.2549,0.2587,0.2615,0.2622,0.2368,0.2374,0.2302,0.2351,0.2688,0.2687,0.2686,0.2684,0,0.1728,0.1745,0.1756,0.1749,0.1785,0.1827,0.1868,0.1966,0.2032,0.2158,0.2219,0.236,0.2462,0.2551,0.2616,0.2632,0.273,0.2779,0.2608,0.2595,0.2453,0.242,0.2836,0.2836,0.2835,0.2835,0.2835,0,0.1731,0.174,0.1767,0.1769,0.1801,0.1842,0.1909,0.1963,0.2073,0.2149,0.2261,0.2337,0.2502,0.2586,0.2636,0.2634,0.2772,0.2581,0.2597,0.2487,0.2458,0.2723,0.2708,0.2839,0.2838,0.2837,0.2837,0,0.1735,0.1743,0.1762,0.1794,0.1817,0.1851,0.1933,0.1984,0.2083,0.2195,0.2251,0.2381,0.2475,0.2563,0.2678,0.264,0.266,0.2607,0.2426,0.2412,0.2483,0.2474,0.248,0.2473,0.2468,0.2463,0.2458,0,0.1728,0.1745,0.178,0.1794,0.1811,0.1871,0.1918,0.2,0.206,0.2203,0.2259,0.2369,0.2397,0.2443,0.2413,0.2421,0.2519,0.2235,0.2197,0.2428,0.2445,0.2445,0.2444,0.2104,0.2097,0.2092,0.2087,0,0.1696,0.1721,0.1718,0.1786,0.1826,0.1864,0.1944,0.1975,0.2085,0.2134,0.2187,0.221,0.2244,0.2154,0.21,0.2086,0.2224,0.2113,0.2465,0.2158,0.2064,0.2082,0.2097,0.2038,0.2043,0.2047,0.2049,0.2051,0.1654,0.1659,0.1692,0.1751,0.1803,0.1859,0.1852,0.1907,0.1941,0.198,0.2049,0.2004,0.2018,0.1849,0.1778,0.1723,0.1874,0.1825,0.1848,0.1876,0.1758,0.1652,0.1529,0.1531,0.1532,0.1534,0.1535,0,0.1596,0.1633,0.1667,0.1729,0.18,0.1857,0.1867,0.1806,0.1766,0.1816,0.1803,0.1623,0.1538,0.1567,0.1407,0.1337,0.1397,0.1288,0.1409,0.1456,0.1498,0.1368,0.1032,0.1031,0.1029,0.1028,0,0,0.1561,0.1568,0.1614,0.172,0.1804,0.1781,0.1762,0.1634,0.1583,0.1466,0.1433,0.1517,0.1538,0.13,0.1237,0.1125,0.1293,0.1072,0.148,0.1674,0.1716,0.1808,0.1656,0,0,0,0,0]},{"header":{"parameterUnit":"m.s-1","parameterCategory":2,"la1":30.2991,"la2":30.254,"lo1":-89.0895,"lo2":-89.0444,"dy":0.0017,"dx":0.0017,"nx":28,"ny":28,"refTime":"2024-07-10T21:00:00:Z","depth":"2","parameterNumber":3,"parameterNumberName":"V-component_of_CURRENTS"},"data":[0,0,0,0,0,0,0,0,0,0,0,0,0,0,0,0,0,0,0,0,0,0,0,0,0,0,0,0,0,0,0,0,0,0,0,0,0,0,0,0,0,0,0,0,0,0,0,0,0,0,0,0,0,0,0,0,0,0,0.0286,0.0286,0,0.0226,0.0226,0.0225,0.0176,0.0176,0.0176,0.0175,0.0073,0.0071,0.0069,0,0,0,0,0,0,0,0,0,0,0,0,0,0.0332,0.0331,0.0287,0.0286,0.0286,0.0227,0.0226,0.0224,0.0176,0.0176,0.0176,0.0175,0.0074,0.0071,0.0068,0,0,0,0,0,0,0,0,0,0,0,0,0,0.0293,0.0331,0.0287,0.0257,0.0253,0.0227,0.0225,0.0224,0.0176,0.0176,0.0176,0.0175,0.0075,0.0072,0.0068,0.0052,0,0,0.0056,0.0055,0,0,0,0,0,0,0,0,0.0296,0.0291,0.0261,0.0259,0.0255,0.0211,0.0204,0.0165,0.0176,0.0202,0.0175,0.0175,0.0118,0.011,0.0096,0.0047,0.0042,0.0056,0.0054,0.0052,0.0051,0,0,0,0,0,0,0,0.0298,0.0294,0.026,0.0261,0.0257,0.0237,0.0231,0.0196,0.016,0.02,0.0197,0.0195,0.0115,0.01,0.0094,0.0041,0.0056,0.0053,0.0051,0.0049,-0.0013,-0.0012,0,0,0,0,0,0,0.0314,0.0296,0.0262,0.0258,0.0278,0.0237,0.023,0.0223,0.0161,0.0152,0.0196,0.0193,0.0107,0.0098,0.009,0.0086,0.0052,0.0049,0.0047,-0.0013,-0.0013,-0.0012,0,0,0,0,0,0,0.0315,0.0311,0.0264,0.0279,0.0272,0.0237,0.0229,0.0222,0.0208,0.0159,0.0148,0.0189,0.0106,0.0095,0.0067,0.0081,0.0047,0.0044,-0.0014,-0.0013,-0.0012,0.0066,0,0,0,0,0,0,0.0316,0.0311,0.0305,0.0279,0.0271,0.0263,0.023,0.0221,0.0208,0.0205,0.0149,0.014,0.0105,0.0073,0.0064,0.0075,0.0041,-0.0015,-0.0014,-0.0013,0.0062,0.0069,0.0075,0,0,0,0,0,0.0318,0.032,0.0304,0.03,0.0265,0.0264,0.0258,0.0229,0.0209,0.0212,0.0172,0.0141,0.0074,0.0071,0.0059,0.007,-0.0015,-0.0014,-0.0013,0.0059,0.0068,0.0075,0,0,0,0,0,0,0.0342,0.0315,0.0297,0.0291,0.0283,0.0257,0.0256,0.0234,0.0204,0.0197,0.0145,0.0133,0.0113,0.0081,0.0079,0.0056,0.0026,0.0025,0.0084,0.0092,0.0098,0.0123,0.0038,0,0,0,0,0,0.0344,0.0337,0.0314,0.0314,0.031,0.0281,0.0273,0.0258,0.0232,0.0218,0.0178,0.0139,0.0109,0.0093,0.006,0.0046,0.0018,0.0047,0.0053,0.0059,0.0072,0.0045,0.005,-0.0007,-0.0007,-0.0007,0,0,0.036,0.0341,0.034,0.0319,0.0307,0.0307,0.0275,0.0275,0.0273,0.0211,0.0192,0.0156,0.0109,0.0095,0.0084,0.0071,0.0059,0.006,0.0066,0.0076,0.0047,0.0053,0.0058,-0.0006,-0.0007,-0.0007,0,0,0.0393,0.0368,0.0372,0.0366,0.0351,0.0332,0.0336,0.031,0.0296,0.0277,0.0234,0.0213,0.0158,0.0138,0.0118,0.014,0.0091,0.0125,0.0179,0.0153,0.0158,0.0162,0.0131,0.0132,0.0131,0.0132,0.0132,0,0.0405,0.0404,0.0378,0.0382,0.0382,0.0347,0.036,0.0343,0.0311,0.0311,0.0282,0.0223,0.0183,0.0175,0.0184,0.0156,0.0129,0.0155,0.0162,0.0166,0.0168,0.0136,0.0136,0.0136,0.0135,0.0135,0.0134,0,0.0441,0.0438,0.0447,0.0432,0.0431,0.0441,0.0419,0.0413,0.0385,0.0369,0.0354,0.0302,0.0273,0.0256,0.0224,0.0228,0.0198,0.0171,0.0146,0.0179,0.0143,0.0141,0.0141,0.014,0.0139,0.0138,0,0,0.046,0.0468,0.0469,0.0475,0.0458,0.0465,0.0468,0.0467,0.0482,0.044,0.0456,0.0403,0.0381,0.0358,0.0316,0.0295,0.0286,0.0249,0.0245,0.0225,0.0223,0.0198,0.0193,0.0257,0.0257,0.0257,0.019,0,0.0489,0.0514,0.0508,0.0535,0.0541,0.0526,0.054,0.0538,0.0524,0.0532,0.0488,0.0481,0.0418,0.0412,0.0381,0.0319,0.0285,0.0307,0.019,0.0186,0.0165,0.0192,0.0198,0.0139,0.0188,0.0187,0.0187,0,0.0506,0.0522,0.0553,0.0584,0.0589,0.0603,0.0625,0.0635,0.064,0.0636,0.0621,0.0588,0.0564,0.0498,0.0405,0.042,0.0329,0.0268,0.0263,0.0214,0.0158,0.0114,0.0133,0.0183,0.0184,0.0184,0.0184,0,0.0508,0.0547,0.0574,0.0582,0.0612,0.0633,0.065,0.0665,0.0694,0.0705,0.0731,0.0683,0.0671,0.0564,0.0441,0.0423,0.0329,0.0285,0.0168,0.0165,0.0136,0.013,0.0201,0.0201,0.0201,0.0202,0.0202,0,0.0512,0.0534,0.0584,0.0594,0.0647,0.0662,0.0713,0.0729,0.0772,0.0831,0.0787,0.0815,0.0687,0.0619,0.0481,0.0333,0.0354,0.0188,0.0152,0.0162,0.016,0.017,0.0167,0.0199,0.02,0.02,0.02,0,0.0488,0.0517,0.0555,0.0614,0.0638,0.0672,0.0751,0.08,0.0838,0.0913,0.0928,0.0918,0.0835,0.0689,0.0527,0.0396,0.025,0.0177,0.02,0.0168,0.0088,0.009,0.0051,0.005,0.0049,0.0048,0.0047,0,0.0473,0.049,0.0564,0.0599,0.0625,0.0687,0.0741,0.081,0.0886,0.0978,0.1034,0.0988,0.0951,0.0711,0.0488,0.025,0.0224,0.0103,0.0067,0.0107,0.0075,0.0079,0.0083,0.0053,0.0052,0.0051,0.0051,0,0.0453,0.048,0.0516,0.0598,0.066,0.0744,0.0844,0.0932,0.104,0.1105,0.1191,0.1163,0.0941,0.0714,0.0407,0.0248,0.0148,0.0083,0.0127,0.0094,0.0104,0.0074,0.0078,0.0046,0.0046,0.0047,0.0047,0.0047,0.0441,0.0469,0.0534,0.0616,0.0691,0.0832,0.0946,0.1055,0.119,0.1323,0.1281,0.1221,0.0978,0.0564,0.0325,0.0088,0.0084,-0.0008,-0.0005,-0.0001,0.0015,0.0024,-0.0047,-0.0047,-0.0047,-0.0047,-0.0047,0,0.0452,0.0495,0.056,0.0696,0.0813,0.0851,0.1041,0.1157,0.1334,0.1352,0.1369,0.1108,0.0844,0.0577,0.0207,-0.0019,-0.0028,-0.0074,-0.0038,-0.0032,-0.0027,-0.001,-0.0081,-0.0081,-0.0082,-0.0082,0,0,0.0461,0.0534,0.0586,0.0792,0.0902,0.1092,0.1224,0.1335,0.1385,0.1404,0.1336,0.1213,0.0886,0.062,0.0326,0.0125,0.0101,0.0087,0.0133,0.0215,0.0223,0.0023,0.0056,0,0,0,0,0]}],[{"header":{"parameterUnit":"m.s-1","parameterCategory":2,"la1":30.2991,"la2":30.254,"lo1":-89.0895,"lo2":-89.0444,"dy":0.0017,"dx":0.0017,"nx":28,"ny":28,"refTime":"2024-07-10T21:00:00:Z","depth":"4","parameterNumber":2,"parameterNumberName":"U-component_of_CURRENTS"},"data":[0,0,0,0,0,0,0,0,0,0,0,0,0,0,0,0,0,0,0,0,0,0,0,0,0,0,0,0,0,0,0,0,0,0,0,0,0,0,0,0,0,0,0,0,0,0,0,0,0,0,0,0,0,0,0,0,0,0,-0.0155,-0.0155,0,-0.016,-0.0161,-0.0161,-0.0163,-0.0163,-0.0162,-0.0162,-0.0201,-0.0203,-0.0204,0,0,0,0,0,0,0,0,0,0,0,0,0,-0.0129,-0.0129,-0.0155,-0.0155,-0.0155,-0.016,-0.0161,-0.0161,-0.0163,-0.0163,-0.0162,-0.0162,-0.0201,-0.0202,-0.0204,0,0,0,0,0,0,0,0,0,0,0,0,0,-0.014,-0.013,-0.0155,-0.0155,-0.0155,-0.016,-0.0161,-0.0161,-0.0163,-0.0163,-0.0162,-0.0162,-0.0201,-0.0202,-0.0204,-0.0221,0,0,-0.021,-0.0211,0,0,0,0,0,0,0,0,-0.0139,-0.0141,-0.0155,-0.0155,-0.0155,-0.0159,-0.0165,-0.0182,-0.0163,-0.0162,-0.0162,-0.0162,-0.0189,-0.0192,-0.0196,-0.0223,-0.0225,-0.021,-0.0211,-0.0212,-0.0212,0,0,0,0,0,0,0,-0.0138,-0.014,-0.0159,-0.0155,-0.0155,-0.0148,-0.015,-0.0169,-0.0179,-0.0162,-0.0162,-0.0159,-0.019,-0.0194,-0.0197,-0.0225,-0.021,-0.0211,-0.0213,-0.0213,-0.026,-0.026,0,0,0,0,0,0,-0.0135,-0.014,-0.0159,-0.0159,-0.0144,-0.0149,-0.0151,-0.016,-0.0178,-0.018,-0.0159,-0.0159,-0.0191,-0.0195,-0.0198,-0.0182,-0.0212,-0.0214,-0.0215,-0.0259,-0.026,-0.026,0,0,0,0,0,0,-0.0135,-0.0137,-0.0159,-0.0147,-0.0149,-0.015,-0.0159,-0.016,-0.0156,-0.0176,-0.0178,-0.0154,-0.0191,-0.0196,-0.0207,-0.0185,-0.0214,-0.0216,-0.0259,-0.026,-0.026,-0.0174,0,0,0,0,0,0,-0.0134,-0.0137,-0.0146,-0.0148,-0.015,-0.0163,-0.0159,-0.016,-0.0155,-0.0155,-0.0173,-0.0176,-0.0191,-0.0204,-0.0209,-0.0188,-0.0217,-0.0259,-0.0259,-0.026,-0.0177,-0.0171,-0.0167,0,0,0,0,0,-0.0133,-0.0146,-0.0147,-0.0149,-0.0161,-0.0163,-0.0164,-0.0164,-0.0155,-0.0159,-0.0164,-0.0175,-0.0209,-0.0206,-0.0211,-0.019,-0.0259,-0.0259,-0.026,-0.0179,-0.0172,-0.0167,0,0,0,0,0,0,-0.0128,-0.0147,-0.0148,-0.0163,-0.0163,-0.0163,-0.0167,-0.0159,-0.0165,-0.0154,-0.0176,-0.0181,-0.0182,-0.0207,-0.0203,-0.0209,-0.0237,-0.0238,-0.0174,-0.0168,-0.0163,-0.011,-0.0219,0,0,0,0,0,-0.0133,-0.0155,-0.0158,-0.0168,-0.0169,-0.0165,-0.0165,-0.0152,-0.0154,-0.0156,-0.0155,-0.0168,-0.019,-0.0194,-0.0213,-0.0216,-0.0229,-0.021,-0.0205,-0.02,-0.0163,-0.0186,-0.0179,-0.0261,-0.0261,-0.0261,0,0,-0.0126,-0.0145,-0.0152,-0.0169,-0.017,-0.0162,-0.0165,-0.0152,-0.013,-0.016,-0.013,-0.0148,-0.0189,-0.0187,-0.019,-0.0202,-0.0186,-0.02,-0.0196,-0.016,-0.0186,-0.0177,-0.017,-0.0261,-0.0261,-0.0261,0,0,-0.0129,-0.0147,-0.0164,-0.0167,-0.0164,-0.0153,-0.0146,-0.0125,-0.0109,-0.0081,-0.0104,-0.011,-0.0118,-0.0145,-0.0165,-0.015,-0.016,-0.0153,-0.0077,-0.0101,-0.0093,-0.0087,-0.0094,-0.0089,-0.0148,-0.0148,-0.0148,0,-0.0117,-0.0144,-0.0164,-0.0175,-0.0164,-0.0147,-0.0132,-0.0117,-0.0091,-0.0063,-0.0058,-0.0059,-0.0099,-0.0113,-0.0095,-0.0135,-0.0133,-0.0093,-0.009,-0.0084,-0.0079,-0.0089,-0.0084,-0.0144,-0.0145,-0.0145,-0.0145,0,-0.0121,-0.0145,-0.0152,-0.0161,-0.0149,-0.0133,-0.0106,-0.0068,-0.0024,0.0004,0.0036,0.0001,0.0015,-0.0018,-0.0041,-0.0027,-0.0033,-0.0081,-0.0096,-0.0065,-0.0078,-0.0075,-0.0138,-0.014,-0.0141,-0.0142,0,0,-0.0091,-0.0145,-0.0145,-0.0153,-0.0133,-0.0119,-0.0069,-0.002,0.0031,0.0072,0.0132,0.0102,0.0134,0.0114,0.0073,0.0051,0.0077,0.0031,0.0028,0.0044,0.0061,0.0104,0.0111,0.0046,0.0047,0.0048,0.0037,0,-0.0084,-0.0105,-0.0123,-0.0113,-0.0113,-0.0079,-0.0034,0.0025,0.0084,0.0151,0.0147,0.0187,0.0165,0.0191,0.0175,0.0098,0.0093,0.0087,0.0013,0.0011,0.0062,0.0119,0.0051,0.0039,0.004,0.0041,0.0041,0,-0.0078,-0.0095,-0.0086,-0.009,-0.0081,-0.0051,0.0047,0.0098,0.0187,0.0239,0.0306,0.0321,0.0333,0.0295,0.0241,0.0253,0.0198,0.0126,0.0122,0.0146,0.0063,-0.0001,0.0047,0.0046,0.0046,0.0046,0.0045,0,-0.0039,-0.0071,-0.006,-0.0059,-0.0043,-0.0004,0.0049,0.0145,0.0208,0.0326,0.038,0.0414,0.0433,0.0385,0.0289,0.029,0.0198,0.0157,0.014,0.014,0.0065,0.0058,0.0128,0.0128,0.0128,0.0128,0.0129,0,-0.0029,-0.0032,-0.0042,-0.0035,0.001,0.004,0.0133,0.0198,0.0304,0.0396,0.045,0.0504,0.0462,0.0413,0.0329,0.0263,0.0237,0.0194,0.0155,0.0097,0.0094,0.0067,0.006,0.0128,0.0128,0.0128,0.0128,0,-0.0012,-0.0021,-0.002,0.0003,0.002,0.0077,0.0174,0.0246,0.0349,0.0471,0.0522,0.0579,0.0572,0.0472,0.0367,0.0312,0.0218,0.0182,0.0147,0.0098,0.0178,0.0175,0.0229,0.0231,0.0232,0.0234,0.0235,0,-0.0011,-0.0009,0.0013,0.0029,0.0035,0.0114,0.0178,0.0285,0.0368,0.0515,0.0565,0.0609,0.0637,0.0519,0.0421,0.0293,0.025,0.0207,0.0216,0.024,0.0195,0.019,0.0185,0.0237,0.0237,0.0238,0.0238,0,-0.0015,-0.0002,0.0,0.004,0.0087,0.014,0.0238,0.03,0.0456,0.0521,0.065,0.0669,0.0649,0.0585,0.047,0.036,0.0252,0.0223,0.022,0.0228,0.0249,0.0202,0.0196,0.0243,0.0243,0.0242,0.0242,0,-0.0014,-0.001,0.0004,0.0036,0.009,0.0157,0.0211,0.0324,0.0425,0.0604,0.0645,0.0668,0.0703,0.0618,0.0504,0.0426,0.0426,0.0384,0.0372,0.0365,0.0404,0.0451,0.0512,0,0,0,0,0,-0.0013,-0.0014,-0.0001,0.0038,0.0089,0.0132,0.0239,0.0302,0.045,0.0557,0.0621,0.0634,0.0613,0.0592,0.053,0.0493,0.0359,0.0415,0.0288,0.0272,0.0266,0.0293,0,0,0,0,0,0,-0.0015,-0.0007,-0.0012,0.0027,0.0066,0.0137,0.0216,0.0309,0.0381,0.0524,0.0503,0.0606,0.0545,0.0641,0.0523,0.0508,0.0419,0.0423,0.0421,0.0276,0.027,0.0265,0.0291,0,0,0,0,0]},{"header":{"parameterUnit":"m.s-1","parameterCategory":2,"la1":30.2991,"la2":30.254,"lo1":-89.0895,"lo2":-89.0444,"dy":0.0017,"dx":0.0017,"nx":28,"ny":28,"refTime":"2024-07-10T21:00:00:Z","depth":"4","parameterNumber":3,"parameterNumberName":"V-component_of_CURRENTS"},"data":[0,0,0,0,0,0,0,0,0,0,0,0,0,0,0,0,0,0,0,0,0,0,0,0,0,0,0,0,0,0,0,0,0,0,0,0,0,0,0,0,0,0,0,0,0,0,0,0,0,0,0,0,0,0,0,0,0,0,0.0517,0.0517,0,0.0515,0.0515,0.0515,0.0549,0.055,0.0551,0.0552,0.063,0.0631,0.0632,0,0,0,0,0,0,0,0,0,0,0,0,0,0.0491,0.0491,0.0517,0.0517,0.0517,0.0515,0.0515,0.0515,0.0549,0.055,0.0551,0.0553,0.063,0.0631,0.0632,0,0,0,0,0,0,0,0,0,0,0,0,0,0.0495,0.0491,0.0517,0.0535,0.0537,0.0515,0.0515,0.0515,0.0548,0.055,0.0552,0.0553,0.0629,0.0631,0.0632,0.0608,0,0,0.0637,0.0638,0,0,0,0,0,0,0,0,0.0495,0.0496,0.0532,0.0534,0.0536,0.0536,0.0535,0.0551,0.0548,0.0542,0.0552,0.0554,0.0606,0.061,0.0601,0.0612,0.0615,0.0637,0.0638,0.0639,0.0639,0,0,0,0,0,0,0,0.0494,0.0495,0.0514,0.0533,0.0535,0.0524,0.0527,0.0537,0.0564,0.0542,0.0545,0.0548,0.0608,0.06,0.0604,0.0617,0.0637,0.0639,0.064,0.064,0.0613,0.0611,0,0,0,0,0,0,0.05,0.0495,0.0514,0.0514,0.0522,0.0524,0.0527,0.0532,0.0563,0.0569,0.0547,0.055,0.0596,0.0602,0.0607,0.0591,0.0639,0.064,0.0641,0.0614,0.0612,0.0611,0,0,0,0,0,0,0.05,0.0502,0.0514,0.0506,0.0508,0.0523,0.0529,0.0532,0.0568,0.0566,0.0573,0.0586,0.0598,0.0605,0.0635,0.0594,0.0641,0.0643,0.0616,0.0614,0.0611,0.0553,0,0,0,0,0,0,0.0499,0.0502,0.0513,0.0507,0.0508,0.0528,0.0528,0.053,0.0565,0.057,0.0601,0.0607,0.06,0.0632,0.0636,0.0597,0.0644,0.0618,0.0615,0.0612,0.0557,0.0549,0.0542,0,0,0,0,0,0.0498,0.0504,0.0514,0.0517,0.0522,0.0529,0.053,0.0544,0.0566,0.0583,0.0595,0.0608,0.0614,0.0633,0.0638,0.0598,0.062,0.0616,0.0612,0.056,0.055,0.0542,0,0,0,0,0,0,0.0494,0.0508,0.0519,0.0529,0.0543,0.0537,0.0555,0.0568,0.0588,0.0616,0.0609,0.0615,0.0613,0.0624,0.0645,0.0578,0.061,0.0607,0.0568,0.0559,0.0552,0.0556,0.0645,0,0,0,0,0,0.0499,0.0516,0.0524,0.0537,0.0551,0.0563,0.0573,0.0595,0.0607,0.0621,0.0626,0.0623,0.059,0.0598,0.0585,0.0575,0.0568,0.0544,0.0537,0.053,0.0535,0.0474,0.0461,0.0598,0.0598,0.0598,0,0,0.0498,0.0512,0.052,0.0539,0.0555,0.0567,0.0575,0.0617,0.0611,0.0627,0.063,0.0613,0.0583,0.0547,0.0546,0.0562,0.0487,0.0526,0.052,0.0528,0.0468,0.0455,0.0443,0.0596,0.0596,0.0597,0,0,0.05,0.0528,0.054,0.0574,0.0618,0.0606,0.063,0.0648,0.0646,0.0646,0.0626,0.0593,0.0581,0.0519,0.0489,0.0441,0.0449,0.0438,0.0405,0.0345,0.0333,0.0323,0.0297,0.0285,0.0433,0.0433,0.0433,0,0.0501,0.0522,0.0545,0.0585,0.0611,0.0628,0.0655,0.0638,0.0657,0.0632,0.0653,0.056,0.0547,0.0447,0.0417,0.042,0.0411,0.0442,0.0335,0.0324,0.0315,0.0291,0.0278,0.0429,0.043,0.043,0.043,0,0.0526,0.0554,0.0575,0.0614,0.0638,0.0678,0.0672,0.0669,0.066,0.0626,0.0558,0.0513,0.0455,0.0418,0.0404,0.0307,0.0331,0.0332,0.036,0.0297,0.0276,0.0264,0.0425,0.0426,0.0427,0.0428,0,0,0.0493,0.0568,0.0582,0.0612,0.0675,0.0691,0.0672,0.063,0.0604,0.0569,0.0501,0.0403,0.0386,0.035,0.0311,0.0247,0.0161,0.0267,0.0266,0.0246,0.0057,0.0087,0.0077,0.015,0.0147,0.0145,0.0071,0,0.0502,0.0557,0.0595,0.064,0.0667,0.0695,0.0673,0.0652,0.0599,0.0534,0.0437,0.0382,0.0354,0.0335,0.0253,0.018,0.0128,0.0184,0.0118,0.0117,0.0153,0.0062,0.0137,0.0062,0.0059,0.0057,0.0055,0,0.0519,0.055,0.0598,0.0651,0.0669,0.0693,0.0671,0.0672,0.0576,0.0538,0.0445,0.0387,0.0261,0.0272,0.0104,0.0147,0.0109,0.0057,0.0053,0.0096,0.0123,0.0136,0.0034,0.0035,0.0037,0.0038,0.004,0,0.049,0.0552,0.058,0.0622,0.0675,0.0688,0.0712,0.0669,0.0659,0.056,0.0519,0.0368,0.0306,0.0201,0.009,0.0103,-0.0072,-0.0068,-0.0078,-0.0074,-0.0048,-0.0036,-0.0159,-0.0159,-0.0159,-0.0158,-0.0158,0,0.0496,0.0527,0.0574,0.0617,0.0647,0.0711,0.0727,0.0714,0.0685,0.0656,0.0546,0.046,0.029,0.0163,0.0078,-0.0047,-0.0082,-0.0098,-0.0107,-0.0069,-0.0059,-0.0056,-0.0043,-0.0161,-0.0161,-0.016,-0.016,0,0.0489,0.0522,0.0569,0.0627,0.065,0.0699,0.0783,0.0784,0.0763,0.0715,0.0695,0.0517,0.0348,0.0188,0.0009,-0.005,-0.0168,-0.0181,-0.0119,-0.0119,-0.0123,-0.0112,-0.0225,-0.0225,-0.0224,-0.0224,-0.0224,0,0.0497,0.0516,0.0589,0.0621,0.0662,0.0734,0.0784,0.0824,0.0823,0.0737,0.0697,0.053,0.0397,0.0147,-0.0006,-0.0175,-0.0175,-0.0208,-0.0189,-0.0141,-0.0137,-0.0126,-0.0116,-0.0224,-0.0224,-0.0224,-0.0224,0,0.0506,0.0534,0.0572,0.0635,0.0699,0.0771,0.0837,0.0835,0.0863,0.0816,0.0689,0.0545,0.0347,0.014,0.0022,-0.0097,-0.019,-0.0207,-0.0208,-0.0191,-0.0141,-0.0136,-0.0126,-0.0224,-0.0224,-0.0224,-0.0224,0,0.0514,0.0538,0.0586,0.0642,0.0728,0.0798,0.0829,0.0835,0.0855,0.0766,0.0714,0.0509,0.0382,0.0181,0.0056,-0.0055,-0.0078,-0.0077,-0.0085,-0.0087,-0.0023,0.0061,0.0015,0,0,0,0,0,0.0511,0.0536,0.0585,0.0663,0.0752,0.081,0.0859,0.0876,0.087,0.0799,0.0771,0.0595,0.0372,0.0241,0.0133,0.0057,-0.0095,-0.0068,-0.0096,-0.0223,-0.0223,-0.017,0,0,0,0,0,0,0.0506,0.0554,0.0577,0.068,0.0741,0.0852,0.0896,0.0886,0.084,0.0792,0.0656,0.0603,0.0362,0.0434,0.0137,0.0097,0.0077,-0.0181,-0.0182,-0.0222,-0.0223,-0.0223,-0.0169,0,0,0,0,0]}]]